Regional Weather Roundup
Issued by NWS Goodland, KS

Home | Current Version | Previous Version | Graphics & Text | Print | Product List | Glossary On
Versions: 1 2 3 4 5 6 7 8 9 10 11 12 13 14 15 16 17 18 19 20 21 22 23 24 25 26 27 28 29 30 31 32 33 34 35 36 37 38 39 40 41 42 43 44 45 46 47 48 49 50
000
ASUS43 KGLD 281908
RWRGLD

GOODLAND FORECAST AREA HOURLY WEATHER ROUNDUP
NATIONAL WEATHER SERVICE GOODLAND KS
1200 PM MST SUN DEC 28 2014

...OFFICIAL OBSERVATIONS...

CITY           SKY/WX    TMP DP  RH WIND       PRES   REMARKS
GOODLAND KS    CLOUDY    30  21  69 S9        29.94F
HILL CITY KS   MOSUNNY   32  20  61 CALM      30.05F
IMPERIAL NEB   PTSUNNY   24  12  60 NE3       29.96F
MCCOOK NEB     PTSUNNY   24  14  65 N3        30.02F
AKRON CO       CLOUDY    19  13  77 S7        29.88F
BURLINGTON CO  CLOUDY    29  20  69 SE8       29.91F
LIMON CO       SUNNY     31  10  41 CALM      29.86F
$$

...UNOFFICIAL OBSERVATIONS...

CITY           SKY/WX    TMP DP  RH WIND       PRES   REMARKS
COLBY KS       CLOUDY    32  27  80 S6        29.98F
NORTON KS      CLOUDY    28  16  59 SW3       30.01F
SHARON SPRINGS   N/A     36  24  61 S5          N/A
TRIBUNE KS     MOSUNNY   39  25  56 SE3       29.95F
KIT CARSON CO    N/A     32  21  65 MISG        N/A
YUMA CO          N/A     29  18  62 CALM        N/A
$$



USA.gov is the U.S. government's official web portal to all federal, state and local government web resources and services.